Tianhui 1-04

operational
NORAD ID: 49049 Int'l Des: 2021-067 Owner: GCDX Country: CN
LEOCIRCULARRETROGRADESSO

Über Tianhui 1-04

Beschreibung wird geladen...

Live-Position

3D-Globus wird geladen...

Nächste Überflüge

Höhenverlauf

Altitude vs Time

uPlot chart will show altitude changes over time

Zweizeiliger Elementsatz

1 49049U 21067A 25278.21625466 .00010154 00000-0 42451-3 0 9998
2 49049 97.3114 348.5084 0000893 125.7535 234.3786 15.23789526232775
Epoch: 5. Okt. 2025 • Age: 7 hours

Aktueller Status

Höhe 522.6 km
Geschwindigkeit 7.60 km/s
Subsatellitenpunkt -77.59°S, 70.54°W
Startdatum 29. Juli 2021
Alter 4.1 years
Typ other

Technische Details

Klassifizierung Payload
Masse 1000.00 kg
Trockenmasse 1000.00 kg
Gesamtmasse 1000.00 kg
Länge 1.00 m
Durchmesser 1.00 m
Spannweite 3.00 m
Form Box + 2 Pan
Hersteller DFHZ
Bus-Typ CAST-2000
Phasenstatus In Orbit
Besitzer/Staat GCDX/CN

Große Konstellationen

Loading constellations...